[[{"header":{"parameterUnit":"m.s-1","parameterCategory":2,"la1":30.2991,"la2":30.254,"lo1":-89.0895,"lo2":-89.0444,"dy":0.0017,"dx":0.0017,"nx":28,"ny":28,"refTime":"2023-07-27T03:00:00:Z","depth":"0","parameterNumber":2,"parameterNumberName":"U-component_of_CURRENTS"},"data":[0,0,0,0,0,0,0,0,0,0,0,0,0,0,0,0,0,0,0,0,0,0,0,0,0,0,0,0,0,0,0,0,0,0,0,0,0,0,0,0,0,0,0,0,0,0,0,0,0,0,0,0,0,0,0,0,0,0,0.4462,0.4463,0,0.4513,0.4513,0.4513,0.451,0.451,0.451,0.451,0.451,0.451,0.451,0,0,0,0,0,0,0,0,0,0,0,0,0,0.433,0.4332,0.4462,0.4463,0.4465,0.4513,0.4513,0.4513,0.451,0.451,0.451,0.451,0.451,0.451,0.451,0,0,0,0,0,0,0,0,0,0,0,0,0,0.4378,0.4333,0.4462,0.4475,0.4477,0.4513,0.4513,0.4513,0.451,0.451,0.451,0.451,0.451,0.451,0.451,0.451,0,0,0.451,0.451,0,0,0,0,0,0,0,0,0.4375,0.4381,0.4472,0.4474,0.4477,0.4512,0.4468,0.4513,0.451,0.4489,0.451,0.451,0.4512,0.4511,0.451,0.451,0.4511,0.451,0.451,0.451,0.451,0,0,0,0,0,0,0,0.4372,0.4379,0.4474,0.4473,0.4477,0.4469,0.4474,0.4475,0.4492,0.4491,0.4493,0.4511,0.4511,0.451,0.451,0.4511,0.451,0.451,0.451,0.451,0.4518,0.4518,0,0,0,0,0,0,0.4384,0.4376,0.4473,0.4476,0.4434,0.4472,0.4478,0.4494,0.4494,0.4496,0.4511,0.4511,0.451,0.451,0.451,0.4499,0.451,0.451,0.451,0.4518,0.4518,0.4518,0,0,0,0,0,0,0.4381,0.4392,0.4471,0.4434,0.4444,0.4475,0.4493,0.4496,0.4494,0.4511,0.4511,0.4508,0.451,0.451,0.4502,0.4499,0.451,0.451,0.4518,0.4518,0.4518,0.4484,0,0,0,0,0,0,0.4376,0.439,0.4389,0.4435,0.4447,0.4482,0.4494,0.4497,0.4509,0.4509,0.4508,0.4508,0.451,0.4502,0.4502,0.45,0.451,0.4517,0.4518,0.4518,0.4485,0.4483,0.4482,0,0,0,0,0,0.4371,0.437,0.4388,0.44,0.4451,0.4482,0.4486,0.4502,0.4509,0.45,0.4502,0.4508,0.4505,0.4502,0.4502,0.4499,0.4517,0.4518,0.4518,0.4486,0.4484,0.4482,0,0,0,0,0,0,0.4315,0.4372,0.4393,0.441,0.4443,0.4484,0.448,0.45,0.4495,0.4491,0.4502,0.4502,0.4499,0.4505,0.4501,0.4506,0.4516,0.4516,0.4491,0.4489,0.4488,0.4466,0.451,0,0,0,0,0,0.4306,0.4316,0.4375,0.4388,0.4403,0.4441,0.4453,0.4471,0.4487,0.4484,0.4488,0.4494,0.4503,0.4498,0.4505,0.4498,0.4524,0.4501,0.4499,0.4498,0.4482,0.4567,0.4572,0.452,0.452,0.452,0,0,0.4292,0.4323,0.4331,0.4376,0.4399,0.4412,0.4444,0.4463,0.4465,0.4485,0.4469,0.4488,0.4502,0.4497,0.4497,0.4498,0.4517,0.4498,0.4497,0.4481,0.4568,0.4573,0.4578,0.452,0.452,0.452,0,0,0.4273,0.4294,0.4298,0.4319,0.4362,0.4382,0.439,0.4429,0.4431,0.4433,0.4454,0.4458,0.4468,0.4471,0.4477,0.4468,0.4512,0.4489,0.4453,0.4537,0.4542,0.4547,0.4546,0.4552,0.4482,0.4482,0.4482,0,0.4254,0.4274,0.4303,0.4312,0.4325,0.4368,0.4375,0.4383,0.4412,0.4411,0.442,0.4446,0.4448,0.4455,0.4448,0.4461,0.4506,0.4457,0.4535,0.4541,0.4547,0.4546,0.4552,0.4481,0.4481,0.4481,0.4481,0,0.4247,0.4256,0.4257,0.4281,0.4288,0.4301,0.433,0.4329,0.4343,0.436,0.4371,0.4388,0.4399,0.4413,0.4421,0.4461,0.4476,0.453,0.4539,0.455,0.4547,0.4554,0.4478,0.4479,0.4479,0.448,0,0,0.4227,0.425,0.4251,0.425,0.4275,0.4281,0.4274,0.4286,0.428,0.4305,0.4306,0.4319,0.434,0.4348,0.4379,0.4438,0.449,0.4498,0.4503,0.4491,0.4639,0.4402,0.4387,0.4594,0.4596,0.4597,0.4606,0,0.4217,0.4228,0.4236,0.4224,0.4229,0.4243,0.423,0.4237,0.4247,0.425,0.4281,0.4292,0.4315,0.4328,0.4389,0.4479,0.4516,0.4479,0.4634,0.4636,0.4422,0.439,0.409,0.4053,0.4614,0.4615,0.4616,0,0.4215,0.4215,0.4215,0.4199,0.42,0.4187,0.4172,0.4169,0.4179,0.4192,0.4213,0.4244,0.4283,0.4331,0.4461,0.4454,0.4526,0.4597,0.4601,0.4395,0.4412,0.4142,0.4045,0.3908,0.4627,0.4626,0.4625,0,0.42,0.4198,0.4194,0.4192,0.4182,0.4161,0.4148,0.4146,0.4133,0.4157,0.4154,0.4224,0.4245,0.4381,0.4468,0.4498,0.4625,0.4687,0.4528,0.4511,0.4282,0.4239,0.4059,0.4785,0.4785,0.4785,0.4785,0,0.4193,0.4171,0.418,0.4171,0.413,0.4134,0.4092,0.4094,0.4092,0.4069,0.4119,0.4119,0.4277,0.4346,0.4463,0.4469,0.4615,0.4483,0.4496,0.4252,0.4209,0.4101,0.4118,0.4785,0.4785,0.4785,0.4785,0,0.415,0.4178,0.4152,0.4138,0.4124,0.4088,0.404,0.4015,0.4025,0.4,0.4005,0.4054,0.4107,0.4218,0.4402,0.4399,0.4319,0.4462,0.4099,0.4065,0.3712,0.3738,0.3496,0.343,0.4248,0.4242,0.4237,0,0.4112,0.4114,0.4112,0.4098,0.4076,0.4028,0.3994,0.3984,0.3956,0.3952,0.3937,0.3953,0.3957,0.4046,0.4038,0.4096,0.4092,0.3832,0.3804,0.359,0.3638,0.3583,0.3547,0.3494,0.3483,0.3474,0.3467,0,0.4026,0.4053,0.4053,0.4026,0.3993,0.3943,0.3893,0.3857,0.3845,0.3822,0.3785,0.379,0.3754,0.3613,0.3606,0.363,0.3554,0.3646,0.3565,0.3101,0.2899,0.2874,0.3559,0.339,0.3398,0.3403,0.3407,0.3411,0.3963,0.3944,0.3975,0.3929,0.391,0.3844,0.3747,0.3713,0.3646,0.3522,0.3626,0.3511,0.3293,0.3197,0.3182,0.2813,0.3028,0.2687,0.2759,0.274,0.2571,0.3006,0.2768,0.2772,0.2776,0.2779,0.2782,0,0.3846,0.386,0.3852,0.3805,0.3745,0.3756,0.366,0.3527,0.3393,0.332,0.3255,0.2936,0.2697,0.251,0.2122,0.1972,0.1972,0.1893,0.1793,0.1834,0.2311,0.2168,0.1618,0.1618,0.1618,0.1618,0.1618,0.1619,0.3792,0.3759,0.3755,0.364,0.3604,0.3427,0.3341,0.317,0.3057,0.2722,0.2475,0.2403,0.2134,0.1698,0.1365,0.1339,0.133,0.1141,0.1349,0.1703,0.1784,0.1862,0.1726,0.1092,0.1092,0.0706,0.0703,0.0701]},{"header":{"parameterUnit":"m.s-1","parameterCategory":2,"la1":30.2991,"la2":30.254,"lo1":-89.0895,"lo2":-89.0444,"dy":0.0017,"dx":0.0017,"nx":28,"ny":28,"refTime":"2023-07-27T03:00:00:Z","depth":"0","parameterNumber":3,"parameterNumberName":"V-component_of_CURRENTS"},"data":[0,0,0,0,0,0,0,0,0,0,0,0,0,0,0,0,0,0,0,0,0,0,0,0,0,0,0,0,0,0,0,0,0,0,0,0,0,0,0,0,0,0,0,0,0,0,0,0,0,0,0,0,0,0,0,0,0,0,0.0189,0.0188,0,0.0173,0.0173,0.0173,0.0172,0.0172,0.0172,0.0171,0.0229,0.023,0.0232,0,0,0,0,0,0,0,0,0,0,0,0,0,0.0253,0.0252,0.0189,0.0188,0.0188,0.0173,0.0173,0.0173,0.0172,0.0172,0.0172,0.0171,0.0228,0.023,0.0232,0,0,0,0,0,0,0,0,0,0,0,0,0,0.0233,0.0252,0.0189,0.0183,0.0182,0.0173,0.0173,0.0173,0.0172,0.0172,0.0171,0.0171,0.0228,0.023,0.0232,0.025,0,0,0.024,0.0241,0,0,0,0,0,0,0,0,0.0234,0.0231,0.0185,0.0184,0.0183,0.0172,0.0217,0.0202,0.0172,0.0179,0.0171,0.0171,0.0215,0.0218,0.0219,0.0252,0.0255,0.024,0.0242,0.0243,0.0243,0,0,0,0,0,0,0,0.0235,0.0232,0.0185,0.0184,0.0183,0.0194,0.0191,0.0214,0.0201,0.0178,0.0177,0.0171,0.0215,0.0216,0.022,0.0256,0.024,0.0242,0.0244,0.0245,0.0402,0.0405,0,0,0,0,0,0,0.023,0.0233,0.0186,0.0184,0.0206,0.0193,0.0189,0.0178,0.0199,0.0201,0.0171,0.0171,0.0212,0.0217,0.0222,0.0311,0.0243,0.0245,0.0246,0.04,0.0403,0.0406,0,0,0,0,0,0,0.0231,0.0226,0.0186,0.0207,0.0202,0.0191,0.0178,0.0177,0.0177,0.0193,0.0197,0.0171,0.0212,0.0219,0.026,0.031,0.0246,0.0248,0.0396,0.0401,0.0404,0.0445,0,0,0,0,0,0,0.0233,0.0226,0.0217,0.0206,0.0201,0.0182,0.0178,0.0177,0.0172,0.0172,0.0194,0.0199,0.0213,0.0257,0.0263,0.0313,0.025,0.0393,0.0398,0.0403,0.0441,0.045,0.0459,0,0,0,0,0,0.0236,0.0217,0.0217,0.0211,0.0188,0.0182,0.0181,0.0175,0.0172,0.0174,0.0202,0.0199,0.0295,0.026,0.0267,0.0318,0.039,0.0397,0.0403,0.0437,0.0449,0.0459,0,0,0,0,0,0,0.0216,0.0215,0.0214,0.0189,0.0189,0.0181,0.0175,0.0175,0.0195,0.0199,0.0218,0.0226,0.029,0.0298,0.0259,0.0384,0.0349,0.0357,0.0373,0.0384,0.0393,0.0417,0.0252,0,0,0,0,0,0.0213,0.0214,0.0207,0.0187,0.0187,0.0184,0.018,0.0179,0.0192,0.0199,0.0218,0.026,0.0321,0.0343,0.0384,0.0435,0.0464,0.0481,0.049,0.0498,0.0525,0.0653,0.0676,0.0426,0.0426,0.0426,0,0,0.0195,0.0197,0.0193,0.0187,0.0185,0.0195,0.0182,0.0176,0.0201,0.0205,0.0246,0.0286,0.0343,0.0413,0.0444,0.0423,0.0568,0.0505,0.0511,0.0536,0.0662,0.0686,0.0708,0.043,0.043,0.0429,0,0,0.0182,0.0167,0.0178,0.0183,0.0187,0.0192,0.0192,0.0195,0.0213,0.025,0.0287,0.0366,0.0406,0.0488,0.0531,0.0618,0.0615,0.062,0.0682,0.0804,0.0826,0.0846,0.0839,0.0858,0.0622,0.0622,0.0622,0,0.0161,0.0176,0.0176,0.0192,0.0203,0.0195,0.0214,0.023,0.025,0.0301,0.0268,0.0432,0.0461,0.0616,0.0642,0.0643,0.0661,0.0627,0.0816,0.0837,0.0857,0.0846,0.0867,0.0625,0.0625,0.0624,0.0624,0,0.0173,0.0182,0.0183,0.0216,0.0227,0.0234,0.026,0.0289,0.0307,0.0346,0.0476,0.0534,0.0644,0.0668,0.0672,0.0843,0.0788,0.0811,0.0783,0.0884,0.0865,0.0886,0.0629,0.0628,0.0627,0.0626,0,0,0.0129,0.0186,0.0185,0.0224,0.0245,0.0261,0.0314,0.0388,0.0467,0.05,0.0629,0.0733,0.0776,0.0831,0.0871,0.0967,0.1081,0.0937,0.0942,0.0919,0.126,0.1151,0.1161,0.1137,0.1142,0.1147,0.1163,0,0.0141,0.0195,0.0218,0.027,0.0301,0.0333,0.0397,0.0467,0.0531,0.0649,0.0752,0.0873,0.0836,0.0906,0.1001,0.1095,0.115,0.1069,0.1178,0.1179,0.1064,0.119,0.1113,0.1119,0.1183,0.1186,0.1189,0,0.0149,0.0193,0.0251,0.0345,0.0363,0.0397,0.0529,0.0587,0.0744,0.0803,0.0938,0.1006,0.1169,0.1117,0.13,0.1245,0.125,0.1287,0.129,0.1202,0.1114,0.1048,0.1154,0.1097,0.122,0.1218,0.1216,0,0.0151,0.0218,0.0279,0.0299,0.0395,0.0451,0.051,0.0645,0.0739,0.0918,0.1012,0.1184,0.129,0.1377,0.1404,0.1376,0.1567,0.1545,0.1433,0.1418,0.1387,0.1362,0.1456,0.1667,0.1667,0.1667,0.1667,0,0.0167,0.0218,0.0288,0.0322,0.0425,0.0477,0.0615,0.0699,0.0861,0.1009,0.1098,0.1245,0.137,0.1471,0.1473,0.1505,0.1619,0.1472,0.146,0.1386,0.1362,0.1335,0.1319,0.1668,0.1667,0.1667,0.1667,0,0.0185,0.0219,0.0299,0.0395,0.043,0.0508,0.0656,0.0774,0.0894,0.1094,0.1156,0.1333,0.1457,0.1507,0.1645,0.1586,0.1595,0.1594,0.1422,0.1392,0.1222,0.1209,0.1307,0.132,0.15,0.1498,0.1496,0,0.0227,0.0259,0.0343,0.04,0.045,0.0563,0.066,0.0785,0.0912,0.1148,0.1259,0.1413,0.1536,0.1633,0.1588,0.1559,0.1537,0.142,0.1382,0.1233,0.1213,0.1205,0.1211,0.1314,0.1311,0.1309,0.1307,0,0.0315,0.0319,0.038,0.047,0.056,0.0674,0.0809,0.0902,0.1073,0.1221,0.1421,0.1529,0.1587,0.1571,0.1484,0.1438,0.1375,0.1364,0.133,0.1187,0.1078,0.1075,0.1183,0.1285,0.1287,0.1289,0.129,0.1291,0.0392,0.0429,0.048,0.057,0.0669,0.079,0.0877,0.1023,0.1197,0.1407,0.1495,0.1646,0.1554,0.1452,0.1371,0.1131,0.1226,0.106,0.1078,0.1098,0.1078,0.1062,0.1084,0.1085,0.1086,0.1087,0.1087,0,0.0494,0.0512,0.0594,0.0693,0.0797,0.0832,0.0992,0.1071,0.1247,0.1436,0.1574,0.1579,0.1458,0.1308,0.1003,0.0879,0.0875,0.0824,0.0834,0.0877,0.0963,0.0919,0.0763,0.0763,0.0764,0.0764,0.0764,0.0764,0.056,0.0619,0.063,0.0791,0.0861,0.0977,0.1051,0.1153,0.1283,0.142,0.1494,0.1552,0.1398,0.1004,0.0742,0.0694,0.0704,0.0636,0.0715,0.0763,0.0787,0.081,0.0766,0.0582,0.0582,0.0615,0.0615,0.0614]}],[{"header":{"parameterUnit":"m.s-1","parameterCategory":2,"la1":30.2991,"la2":30.254,"lo1":-89.0895,"lo2":-89.0444,"dy":0.0017,"dx":0.0017,"nx":28,"ny":28,"refTime":"2023-07-27T03:00:00:Z","depth":"2","parameterNumber":2,"parameterNumberName":"U-component_of_CURRENTS"},"data":[0,0,0,0,0,0,0,0,0,0,0,0,0,0,0,0,0,0,0,0,0,0,0,0,0,0,0,0,0,0,0,0,0,0,0,0,0,0,0,0,0,0,0,0,0,0,0,0,0,0,0,0,0,0,0,0,0,0,0.1986,0.1987,0,0.2032,0.2032,0.2032,0.2037,0.2037,0.2037,0.2037,0.2083,0.2084,0.2085,0,0,0,0,0,0,0,0,0,0,0,0,0,0.195,0.195,0.1986,0.1987,0.1988,0.2032,0.2032,0.2032,0.2037,0.2037,0.2037,0.2037,0.2082,0.2084,0.2085,0,0,0,0,0,0,0,0,0,0,0,0,0,0.1973,0.195,0.1986,0.2,0.2002,0.2032,0.2032,0.2032,0.2037,0.2037,0.2037,0.2037,0.2082,0.2083,0.2085,0.2095,0,0,0.2091,0.2091,0,0,0,0,0,0,0,0,0.1971,0.1973,0.1997,0.1999,0.2002,0.2034,0.2036,0.2055,0.2037,0.2018,0.2037,0.2037,0.207,0.2072,0.2073,0.2097,0.2099,0.2091,0.2092,0.2093,0.2093,0,0,0,0,0,0,0,0.197,0.1972,0.1998,0.1998,0.2001,0.2021,0.2023,0.204,0.2039,0.202,0.2022,0.2035,0.207,0.2071,0.2074,0.2099,0.2091,0.2092,0.2093,0.2094,0.2294,0.2298,0,0,0,0,0,0,0.1972,0.197,0.1997,0.2,0.1992,0.2022,0.2024,0.2019,0.2039,0.2043,0.2035,0.2036,0.2068,0.2072,0.2076,0.2207,0.2092,0.2094,0.2095,0.229,0.2295,0.23,0,0,0,0,0,0,0.1971,0.1973,0.1995,0.1992,0.1997,0.2022,0.2017,0.202,0.206,0.2051,0.2055,0.2077,0.2069,0.2074,0.2137,0.2204,0.2095,0.2097,0.2285,0.2292,0.2298,0.2393,0,0,0,0,0,0,0.1969,0.1972,0.1985,0.1991,0.1997,0.204,0.2017,0.2021,0.2068,0.207,0.2088,0.209,0.2069,0.2135,0.2139,0.2205,0.2098,0.228,0.2288,0.2296,0.2385,0.2402,0.2417,0,0,0,0,0,0.1968,0.1992,0.1985,0.199,0.2008,0.2042,0.2048,0.2062,0.2071,0.2097,0.2121,0.2091,0.219,0.214,0.2143,0.2211,0.2276,0.2286,0.2295,0.2377,0.2399,0.2417,0,0,0,0,0,0,0.1984,0.1995,0.1988,0.2013,0.2036,0.2046,0.2082,0.2091,0.2129,0.2142,0.2131,0.2135,0.2225,0.2213,0.2158,0.23,0.2235,0.2246,0.2296,0.2316,0.2332,0.2327,0.2099,0,0,0,0,0,0.1992,0.2014,0.2023,0.2048,0.2064,0.2079,0.2103,0.2113,0.2142,0.2159,0.2178,0.2213,0.2263,0.2284,0.2318,0.2381,0.2389,0.2436,0.2453,0.2466,0.247,0.2609,0.2637,0.2331,0.2331,0.2331,0,0,0.2011,0.2018,0.2034,0.2055,0.2073,0.2101,0.2094,0.2144,0.2177,0.2159,0.2231,0.2273,0.2298,0.2376,0.2415,0.2373,0.2546,0.2478,0.2489,0.2485,0.2622,0.2651,0.2677,0.2338,0.2337,0.2336,0,0,0.2052,0.2062,0.209,0.2109,0.2146,0.2153,0.2179,0.2214,0.2244,0.231,0.2327,0.2413,0.2462,0.2505,0.2528,0.2659,0.2636,0.2683,0.2746,0.2881,0.2907,0.293,0.2915,0.2936,0.268,0.2681,0.2681,0,0.207,0.2091,0.211,0.2135,0.2157,0.2183,0.2215,0.225,0.2306,0.235,0.2349,0.25,0.2525,0.2636,0.2686,0.2694,0.2723,0.2659,0.2901,0.2924,0.2946,0.2925,0.2947,0.2686,0.2686,0.2685,0.2685,0,0.2121,0.214,0.2167,0.2193,0.2225,0.2264,0.2301,0.2357,0.2403,0.244,0.2578,0.2633,0.2722,0.2761,0.2757,0.2933,0.2882,0.2911,0.2841,0.2982,0.2951,0.2972,0.2695,0.2693,0.2691,0.2689,0,0,0.2145,0.2188,0.2199,0.2216,0.2256,0.2291,0.2358,0.2429,0.2497,0.2583,0.2684,0.2806,0.2861,0.2895,0.2933,0.3044,0.3203,0.3048,0.3052,0.301,0.3415,0.308,0.3069,0.3297,0.3302,0.3307,0.3306,0,0.2173,0.2226,0.224,0.2298,0.2327,0.2361,0.2419,0.2494,0.2567,0.2675,0.2778,0.2893,0.2904,0.2974,0.3096,0.3188,0.3276,0.3194,0.3303,0.3303,0.2975,0.309,0.2887,0.2846,0.3326,0.333,0.3332,0,0.2209,0.2238,0.23,0.2345,0.2365,0.2411,0.2516,0.2571,0.2707,0.2771,0.2904,0.2978,0.3138,0.3149,0.3358,0.3313,0.338,0.3434,0.3437,0.3107,0.301,0.2801,0.2865,0.3366,0.3364,0.3361,0.3359,0,0.2233,0.2277,0.2333,0.235,0.2413,0.2466,0.2512,0.2624,0.2685,0.2855,0.2923,0.3104,0.3198,0.3359,0.3414,0.3442,0.3598,0.3648,0.3388,0.336,0.3192,0.3137,0.3828,0.3828,0.3828,0.3828,0.3828,0,0.2255,0.2307,0.2357,0.2396,0.2471,0.2504,0.2607,0.2678,0.2786,0.2857,0.2992,0.3063,0.3281,0.3359,0.3444,0.3406,0.3619,0.3395,0.3367,0.3205,0.3154,0.3624,0.3601,0.3828,0.3828,0.3828,0.3828,0,0.2301,0.2331,0.2398,0.2466,0.2493,0.2563,0.2642,0.2698,0.2801,0.2898,0.2955,0.3082,0.3149,0.3241,0.3433,0.3377,0.342,0.3359,0.3045,0.2977,0.3086,0.3068,0.3112,0.3101,0.3091,0.3083,0.3077,0,0.233,0.2367,0.2453,0.2487,0.2532,0.2613,0.2648,0.2727,0.2758,0.2872,0.2897,0.2982,0.297,0.2997,0.2968,0.2954,0.3161,0.2716,0.2739,0.3058,0.3029,0.3026,0.3021,0.2553,0.2543,0.2534,0.2528,0,0.2371,0.2418,0.2469,0.251,0.2561,0.2602,0.2647,0.265,0.2709,0.2746,0.2748,0.2746,0.2715,0.2559,0.2452,0.2447,0.2693,0.2528,0.3059,0.2705,0.2516,0.249,0.2509,0.2452,0.2459,0.2465,0.2469,0.2472,0.2403,0.2435,0.2468,0.2495,0.2539,0.252,0.2492,0.2503,0.2475,0.2425,0.2495,0.2377,0.235,0.2046,0.1964,0.1914,0.2131,0.2101,0.2138,0.2182,0.2057,0.1856,0.1638,0.1641,0.1643,0.1645,0.1647,0,0.2393,0.2407,0.2424,0.2415,0.2375,0.2462,0.2417,0.2326,0.2209,0.2167,0.2106,0.1795,0.1614,0.163,0.1431,0.1359,0.1477,0.1314,0.152,0.1592,0.1656,0.1516,0.0949,0.0947,0.0945,0.0943,0,0,0.2389,0.2381,0.2343,0.2214,0.2224,0.2187,0.2137,0.2029,0.1935,0.1674,0.1548,0.1538,0.1545,0.1223,0.116,0.1043,0.1325,0.0986,0.1545,0.1861,0.1924,0.2095,0.1952,0,0,0,0,0]},{"header":{"parameterUnit":"m.s-1","parameterCategory":2,"la1":30.2991,"la2":30.254,"lo1":-89.0895,"lo2":-89.0444,"dy":0.0017,"dx":0.0017,"nx":28,"ny":28,"refTime":"2023-07-27T03:00:00:Z","depth":"2","parameterNumber":3,"parameterNumberName":"V-component_of_CURRENTS"},"data":[0,0,0,0,0,0,0,0,0,0,0,0,0,0,0,0,0,0,0,0,0,0,0,0,0,0,0,0,0,0,0,0,0,0,0,0,0,0,0,0,0,0,0,0,0,0,0,0,0,0,0,0,0,0,0,0,0,0,-0.0106,-0.0106,0,-0.0111,-0.0111,-0.011,-0.0151,-0.0152,-0.0153,-0.0154,-0.0149,-0.0147,-0.0146,0,0,0,0,0,0,0,0,0,0,0,0,0,-0.0103,-0.0103,-0.0106,-0.0106,-0.0106,-0.0111,-0.0111,-0.011,-0.0151,-0.0152,-0.0153,-0.0155,-0.0149,-0.0148,-0.0146,0,0,0,0,0,0,0,0,0,0,0,0,0,-0.0105,-0.0103,-0.0105,-0.0127,-0.013,-0.0111,-0.0111,-0.011,-0.015,-0.0152,-0.0154,-0.0155,-0.0149,-0.0148,-0.0146,-0.0101,0,0,-0.0141,-0.014,0,0,0,0,0,0,0,0,-0.0105,-0.0105,-0.0124,-0.0126,-0.0128,-0.0133,-0.0108,-0.0107,-0.015,-0.0141,-0.0154,-0.0156,-0.0142,-0.0141,-0.0136,-0.0101,-0.0101,-0.014,-0.0139,-0.0139,-0.0138,0,0,0,0,0,0,0,-0.0105,-0.0105,-0.0106,-0.0124,-0.0127,-0.0128,-0.013,-0.0108,-0.0131,-0.0142,-0.0145,-0.0147,-0.0143,-0.0138,-0.0137,-0.0101,-0.014,-0.0139,-0.0138,-0.0137,-0.0062,-0.0061,0,0,0,0,0,0,-0.0106,-0.0104,-0.0106,-0.0107,-0.0122,-0.0127,-0.0129,-0.0129,-0.0131,-0.0134,-0.0146,-0.0149,-0.014,-0.0139,-0.0137,-0.0102,-0.0139,-0.0137,-0.0136,-0.0063,-0.0062,-0.0061,0,0,0,0,0,0,-0.0106,-0.0106,-0.0106,-0.0107,-0.0107,-0.0125,-0.0124,-0.0128,-0.0145,-0.0135,-0.0137,-0.0162,-0.0142,-0.0139,-0.0117,-0.0102,-0.0136,-0.0134,-0.0064,-0.0063,-0.0062,-0.0021,0,0,0,0,0,0,-0.0106,-0.0106,-0.0107,-0.0107,-0.0107,-0.0094,-0.0123,-0.0127,-0.0143,-0.0148,-0.0149,-0.0149,-0.0143,-0.012,-0.0116,-0.01,-0.0133,-0.0065,-0.0064,-0.0062,-0.0024,-0.0018,-0.0014,0,0,0,0,0,-0.0105,-0.0096,-0.0107,-0.0108,-0.0108,-0.0093,-0.0093,-0.0111,-0.0142,-0.0136,-0.0137,-0.015,-0.0107,-0.0117,-0.0112,-0.0096,-0.0066,-0.0064,-0.0062,-0.0026,-0.0019,-0.0014,0,0,0,0,0,0,-0.0099,-0.0099,-0.0112,-0.0105,-0.0102,-0.0101,-0.0098,-0.0118,-0.0115,-0.0125,-0.013,-0.0128,-0.0104,-0.0104,-0.0116,-0.007,-0.0091,-0.0088,-0.0065,-0.006,-0.0055,-0.0039,-0.0132,0,0,0,0,0,-0.0097,-0.0093,-0.0091,-0.0089,-0.0085,-0.0097,-0.0098,-0.0108,-0.0106,-0.011,-0.0114,-0.011,-0.0086,-0.0079,-0.0061,-0.003,-0.0007,-0.002,-0.0015,-0.0011,0.0005,0.0061,0.0073,-0.0054,-0.0054,-0.0054,0,0,-0.0099,-0.0096,-0.0098,-0.0087,-0.0088,-0.0061,-0.0101,-0.0098,-0.0078,-0.0105,-0.0088,-0.0092,-0.0074,-0.0039,-0.003,-0.0041,0.0038,-0.0008,-0.0005,0.001,0.0065,0.0077,0.0088,-0.0053,-0.0053,-0.0053,0,0,-0.0081,-0.0092,-0.0074,-0.0061,-0.0055,-0.005,-0.0053,-0.0057,-0.0062,-0.0043,-0.0054,-0.0042,-0.0027,0.0002,0.0018,0.0062,0.0061,0.0046,0.0086,0.014,0.0151,0.0161,0.0209,0.0223,0.0048,0.0049,0.0049,0,-0.0087,-0.0058,-0.0067,-0.0034,-0.0019,-0.0044,-0.001,-0.0004,-0.0005,0.0006,-0.0034,0.0003,0.0005,0.0073,0.0078,0.0076,0.0096,0.0063,0.0148,0.0158,0.0168,0.0214,0.0229,0.0051,0.005,0.005,0.005,0,-0.0039,-0.002,-0.0005,0.003,0.0049,0.007,0.0085,0.0093,0.0069,0.0071,0.01,0.01,0.0119,0.0118,0.0109,0.0178,0.0166,0.0148,0.0135,0.0184,0.0229,0.0244,0.0054,0.0053,0.0052,0.0052,0,0,-0.0046,0.0014,0.0019,0.0048,0.0084,0.0106,0.0151,0.0189,0.0214,0.0198,0.0239,0.0253,0.0219,0.0235,0.0219,0.0257,0.0333,0.0223,0.0224,0.0274,0.0447,0.0322,0.0326,0.0321,0.0324,0.0326,0.0451,0,-0.0011,0.006,0.0087,0.0152,0.0187,0.0201,0.0247,0.0277,0.0283,0.0317,0.0316,0.0335,0.0276,0.0268,0.0302,0.0344,0.0374,0.0301,0.0389,0.0392,0.0279,0.034,0.0315,0.0413,0.0466,0.0468,0.047,0,0.003,0.0074,0.0139,0.0213,0.023,0.026,0.0325,0.0362,0.0414,0.0415,0.0432,0.0421,0.0481,0.04,0.05,0.0451,0.0443,0.046,0.0465,0.0347,0.0295,0.0373,0.0439,0.0495,0.0493,0.0491,0.0489,0,0.0028,0.0113,0.0162,0.0186,0.0263,0.0287,0.0319,0.0374,0.0422,0.0463,0.0501,0.0544,0.0578,0.0596,0.0603,0.0556,0.0712,0.0657,0.0542,0.0533,0.053,0.0515,0.0708,0.0708,0.0708,0.0707,0.0707,0,0.0056,0.0096,0.0154,0.0179,0.0241,0.0282,0.0345,0.0381,0.0453,0.0549,0.0529,0.0628,0.0623,0.0698,0.0675,0.0671,0.0771,0.0569,0.0562,0.0539,0.0524,0.0601,0.0587,0.0712,0.0711,0.071,0.0709,0,0.0042,0.0081,0.0142,0.0215,0.0235,0.0268,0.0357,0.0423,0.0465,0.0597,0.0614,0.0722,0.0804,0.0791,0.0858,0.0763,0.0771,0.0727,0.0686,0.0668,0.0537,0.0524,0.0623,0.0619,0.0617,0.0614,0.0613,0,0.0043,0.0067,0.015,0.0194,0.0219,0.0275,0.0337,0.0405,0.0502,0.0688,0.0786,0.0869,0.096,0.0982,0.0844,0.0762,0.0767,0.0638,0.0511,0.0547,0.0532,0.0523,0.0513,0.055,0.0548,0.0546,0.0544,0,0.0051,0.0067,0.0128,0.0219,0.028,0.0373,0.0469,0.0552,0.0687,0.0805,0.1023,0.1099,0.1059,0.0974,0.0773,0.0703,0.0638,0.0586,0.0716,0.0525,0.0475,0.0459,0.0455,0.0528,0.0529,0.0531,0.0531,0.0532,0.0059,0.0095,0.0181,0.0278,0.0365,0.0501,0.0561,0.0713,0.0881,0.1064,0.1163,0.1221,0.1093,0.0793,0.0679,0.0489,0.049,0.0408,0.0418,0.0429,0.0348,0.0289,0.0295,0.0296,0.0296,0.0296,0.0296,0,0.0088,0.0149,0.0246,0.0376,0.05,0.0517,0.0688,0.0759,0.0956,0.1105,0.1219,0.1059,0.0944,0.0792,0.0474,0.0295,0.0313,0.0252,0.0331,0.0346,0.0361,0.0279,0.0208,0.0207,0.0207,0.0207,0,0,0.0114,0.0208,0.0275,0.0492,0.0566,0.0654,0.0731,0.085,0.0949,0.1087,0.1094,0.1106,0.0937,0.0695,0.0506,0.0357,0.0381,0.0313,0.0392,0.0521,0.0537,0.0449,0.0339,0,0,0,0,0]}],[{"header":{"parameterUnit":"m.s-1","parameterCategory":2,"la1":30.2991,"la2":30.254,"lo1":-89.0895,"lo2":-89.0444,"dy":0.0017,"dx":0.0017,"nx":28,"ny":28,"refTime":"2023-07-27T03:00:00:Z","depth":"4","parameterNumber":2,"parameterNumberName":"U-component_of_CURRENTS"},"data":[0,0,0,0,0,0,0,0,0,0,0,0,0,0,0,0,0,0,0,0,0,0,0,0,0,0,0,0,0,0,0,0,0,0,0,0,0,0,0,0,0,0,0,0,0,0,0,0,0,0,0,0,0,0,0,0,0,0,0.0101,0.01,0,0.0067,0.0066,0.0066,0.0082,0.0083,0.0084,0.0084,0.0142,0.0143,0.0144,0,0,0,0,0,0,0,0,0,0,0,0,0,0.0238,0.0235,0.0101,0.01,0.0099,0.0067,0.0066,0.0066,0.0082,0.0083,0.0084,0.0085,0.0142,0.0143,0.0144,0,0,0,0,0,0,0,0,0,0,0,0,0,0.0191,0.0234,0.0101,0.0102,0.0102,0.0067,0.0066,0.0066,0.0082,0.0083,0.0084,0.0085,0.0141,0.0143,0.0144,0.0132,0,0,0.0148,0.0149,0,0,0,0,0,0,0,0,0.0193,0.0186,0.0102,0.0102,0.0101,0.0078,0.0136,0.0092,0.0082,0.0092,0.0084,0.0086,0.0127,0.013,0.0123,0.0135,0.0137,0.0148,0.0149,0.015,0.015,0,0,0,0,0,0,0,0.0196,0.0188,0.0089,0.0102,0.0101,0.0124,0.0118,0.0128,0.0107,0.0091,0.0091,0.0084,0.0128,0.0121,0.0124,0.0138,0.0148,0.015,0.015,0.0151,0.0309,0.0312,0,0,0,0,0,0,0.0191,0.019,0.009,0.0088,0.0148,0.012,0.0114,0.0086,0.0105,0.0108,0.0083,0.0085,0.0118,0.0123,0.0127,0.0223,0.015,0.0151,0.0152,0.0305,0.031,0.0313,0,0,0,0,0,0,0.0194,0.0182,0.0092,0.0139,0.0128,0.0116,0.0085,0.0085,0.0102,0.0098,0.0103,0.0104,0.0119,0.0125,0.0194,0.0221,0.0152,0.0153,0.0302,0.0307,0.0311,0.0346,0,0,0,0,0,0,0.0198,0.0183,0.0177,0.0137,0.0125,0.009,0.0084,0.0083,0.0093,0.0096,0.0117,0.0122,0.0121,0.0193,0.0196,0.0222,0.0154,0.0297,0.0304,0.031,0.0341,0.0352,0.0361,0,0,0,0,0,0.0203,0.0182,0.0176,0.0165,0.0111,0.009,0.0087,0.0085,0.0094,0.0105,0.0149,0.0122,0.0235,0.0197,0.0199,0.0226,0.0294,0.0302,0.0309,0.0336,0.035,0.0361,0,0,0,0,0,0,0.0235,0.018,0.0173,0.0136,0.0125,0.0093,0.0096,0.0098,0.0135,0.0154,0.0159,0.0168,0.023,0.0242,0.0199,0.0299,0.0262,0.027,0.0282,0.0294,0.0304,0.0321,0.0155,0,0,0,0,0,0.0238,0.0208,0.0173,0.0147,0.0142,0.0127,0.0123,0.0125,0.014,0.0157,0.0175,0.0217,0.0257,0.0289,0.0312,0.0369,0.0359,0.0396,0.0406,0.0415,0.0437,0.0455,0.0468,0.0338,0.0338,0.0338,0,0,0.0236,0.0208,0.0188,0.0153,0.0142,0.0144,0.0129,0.0129,0.0159,0.0159,0.022,0.024,0.028,0.0341,0.0372,0.0361,0.0445,0.0424,0.043,0.0449,0.0464,0.0476,0.0487,0.0343,0.0342,0.0342,0,0,0.0227,0.0202,0.0183,0.0183,0.0174,0.0169,0.0177,0.0169,0.0199,0.0264,0.0269,0.0327,0.0387,0.0416,0.0443,0.0533,0.0485,0.0537,0.0612,0.0629,0.0639,0.0647,0.0626,0.0632,0.0557,0.0557,0.0557,0,0.0244,0.0201,0.018,0.0181,0.019,0.0186,0.0199,0.0222,0.0249,0.0291,0.0304,0.0408,0.043,0.0507,0.055,0.0551,0.0541,0.0549,0.0637,0.0646,0.0654,0.063,0.0637,0.056,0.056,0.0559,0.0559,0,0.022,0.0208,0.0202,0.02,0.0219,0.0222,0.0254,0.0287,0.0334,0.0371,0.0467,0.0508,0.0583,0.059,0.0608,0.0677,0.0641,0.0626,0.059,0.0668,0.0639,0.0645,0.0564,0.0563,0.0562,0.0561,0,0,0.0209,0.0188,0.0191,0.0214,0.0234,0.0253,0.0308,0.0363,0.0432,0.0487,0.0576,0.0658,0.0689,0.0725,0.0732,0.0759,0.0797,0.0733,0.0733,0.0685,0.0808,0.0752,0.0751,0.0788,0.079,0.0791,0.0754,0,0.0206,0.0196,0.0203,0.0246,0.0253,0.0296,0.0359,0.0428,0.0506,0.0592,0.0655,0.0744,0.074,0.0788,0.0818,0.0809,0.082,0.0807,0.0767,0.0766,0.0683,0.076,0.0798,0.0759,0.076,0.0761,0.0761,0,0.0189,0.0188,0.0202,0.028,0.0296,0.0347,0.0464,0.0532,0.0645,0.071,0.0801,0.0844,0.092,0.0895,0.0925,0.0917,0.0882,0.0855,0.0852,0.0797,0.0722,0.0677,0.0771,0.0771,0.077,0.0769,0.0769,0,0.0183,0.0211,0.0226,0.0244,0.0316,0.038,0.0455,0.0576,0.065,0.0794,0.0855,0.0944,0.1004,0.0991,0.0958,0.0955,0.0945,0.0928,0.0828,0.0821,0.0859,0.0851,0.0931,0.0931,0.0932,0.0932,0.0932,0,0.0171,0.0201,0.0233,0.0249,0.0333,0.0415,0.0551,0.0622,0.0742,0.0837,0.0933,0.0983,0.1036,0.1031,0.0981,0.0925,0.0965,0.086,0.0826,0.0873,0.0867,0.086,0.0853,0.093,0.093,0.0931,0.0931,0,0.0167,0.0162,0.02,0.028,0.0322,0.0404,0.0571,0.0663,0.0783,0.0895,0.0936,0.1029,0.1061,0.1046,0.1022,0.096,0.0894,0.0841,0.0873,0.0837,0.0751,0.0746,0.0773,0.0771,0.0769,0.0768,0.0767,0,0.0153,0.0161,0.022,0.0254,0.0302,0.0435,0.052,0.0658,0.0737,0.0896,0.0917,0.1004,0.1054,0.0974,0.0962,0.0875,0.0839,0.0789,0.0813,0.078,0.0744,0.0741,0.0739,0.0764,0.0764,0.0764,0.0763,0,0.0158,0.0173,0.0208,0.0259,0.0338,0.0422,0.0551,0.0585,0.0746,0.0844,0.0906,0.093,0.0963,0.0951,0.0891,0.081,0.0832,0.0772,0.0776,0.0798,0.0769,0.0735,0.0734,0.0758,0.0758,0.0759,0.0759,0,0.0168,0.0195,0.0229,0.0296,0.0353,0.0389,0.0467,0.0566,0.0645,0.0803,0.0806,0.089,0.0966,0.0911,0.0831,0.079,0.0785,0.0732,0.0738,0.0744,0.075,0.071,0.0672,0,0,0,0,0,0.0159,0.0208,0.0274,0.0297,0.0339,0.0367,0.0474,0.0545,0.0667,0.0696,0.0759,0.0786,0.0787,0.0794,0.0745,0.0782,0.0754,0.0716,0.0689,0.0727,0.0733,0.0741,0,0,0,0,0,0,0.0152,0.0207,0.0272,0.0292,0.0295,0.0328,0.0381,0.0455,0.0482,0.0609,0.0611,0.0707,0.0702,0.0801,0.0718,0.0718,0.0676,0.0752,0.0749,0.0723,0.0729,0.0734,0.0745,0,0,0,0,0]},{"header":{"parameterUnit":"m.s-1","parameterCategory":2,"la1":30.2991,"la2":30.254,"lo1":-89.0895,"lo2":-89.0444,"dy":0.0017,"dx":0.0017,"nx":28,"ny":28,"refTime":"2023-07-27T03:00:00:Z","depth":"4","parameterNumber":3,"parameterNumberName":"V-component_of_CURRENTS"},"data":[0,0,0,0,0,0,0,0,0,0,0,0,0,0,0,0,0,0,0,0,0,0,0,0,0,0,0,0,0,0,0,0,0,0,0,0,0,0,0,0,0,0,0,0,0,0,0,0,0,0,0,0,0,0,0,0,0,0,0.0354,0.0355,0,0.0389,0.0389,0.039,0.0417,0.0417,0.0418,0.0418,0.0389,0.0388,0.0387,0,0,0,0,0,0,0,0,0,0,0,0,0,0.0238,0.024,0.0354,0.0355,0.0355,0.0389,0.0389,0.039,0.0417,0.0417,0.0418,0.0418,0.0389,0.0388,0.0386,0,0,0,0,0,0,0,0,0,0,0,0,0,0.0282,0.0241,0.0354,0.0373,0.0375,0.0389,0.0389,0.039,0.0417,0.0417,0.0418,0.0418,0.0389,0.0388,0.0386,0.0367,0,0,0.0381,0.0381,0,0,0,0,0,0,0,0,0.0279,0.0286,0.037,0.0372,0.0374,0.04,0.0337,0.0379,0.0417,0.0401,0.0418,0.0419,0.0386,0.0385,0.0391,0.0366,0.0364,0.0381,0.038,0.038,0.0379,0,0,0,0,0,0,0,0.0276,0.0284,0.0368,0.0371,0.0373,0.0355,0.0362,0.0345,0.0389,0.0402,0.0404,0.0409,0.0387,0.0392,0.039,0.0364,0.0381,0.038,0.0379,0.0378,0.0315,0.0314,0,0,0,0,0,0,0.0277,0.0282,0.0367,0.0369,0.0327,0.0357,0.0365,0.0391,0.0391,0.0392,0.0408,0.041,0.0395,0.0392,0.0389,0.0378,0.038,0.0378,0.0377,0.0316,0.0315,0.0314,0,0,0,0,0,0,0.0274,0.0285,0.0365,0.0325,0.0334,0.0359,0.0387,0.0391,0.041,0.0396,0.0396,0.0425,0.0395,0.0391,0.0392,0.0376,0.0377,0.0376,0.0316,0.0315,0.0314,0.0348,0,0,0,0,0,0,0.0271,0.0284,0.0305,0.0326,0.0336,0.0382,0.0387,0.0391,0.0411,0.0414,0.0409,0.0407,0.0395,0.0395,0.0391,0.0374,0.0375,0.0317,0.0316,0.0315,0.0347,0.0348,0.0348,0,0,0,0,0,0.0267,0.03,0.0307,0.0317,0.0365,0.0382,0.0386,0.0403,0.0412,0.0422,0.0424,0.0408,0.0382,0.0394,0.0389,0.0372,0.0318,0.0316,0.0315,0.0347,0.0348,0.0348,0,0,0,0,0,0,0.0264,0.0306,0.0314,0.036,0.0371,0.0387,0.0403,0.041,0.0421,0.0428,0.0414,0.0411,0.0397,0.0382,0.0395,0.0346,0.034,0.0338,0.0366,0.0367,0.0367,0.0356,0.0373,0,0,0,0,0,0.0271,0.0308,0.033,0.0365,0.0373,0.0388,0.0399,0.041,0.042,0.0428,0.042,0.0405,0.0382,0.0378,0.0356,0.0343,0.0301,0.0321,0.0322,0.0322,0.0308,0.0215,0.0206,0.0309,0.0309,0.0309,0,0,0.0276,0.0307,0.0325,0.0365,0.0378,0.0392,0.0396,0.0421,0.0427,0.0419,0.0427,0.0408,0.0379,0.0361,0.0352,0.0352,0.028,0.032,0.0321,0.0306,0.0212,0.0202,0.0193,0.0308,0.0308,0.0308,0,0,0.0298,0.0333,0.0364,0.0377,0.0402,0.0407,0.0415,0.0433,0.0438,0.0448,0.0428,0.0398,0.0392,0.0349,0.0331,0.0315,0.0281,0.0315,0.0313,0.0224,0.0215,0.0206,0.018,0.0168,0.0319,0.0319,0.0319,0,0.0297,0.0347,0.0371,0.0396,0.0409,0.0414,0.0434,0.0435,0.0448,0.044,0.0457,0.0396,0.0375,0.0317,0.032,0.0312,0.0286,0.0321,0.0224,0.0214,0.0204,0.0179,0.0166,0.032,0.032,0.032,0.032,0,0.0335,0.037,0.0388,0.0423,0.0436,0.0456,0.0459,0.0456,0.0464,0.0461,0.0422,0.0387,0.035,0.033,0.0332,0.0246,0.0261,0.0234,0.0225,0.0196,0.0172,0.0158,0.0322,0.0322,0.0321,0.0321,0,0,0.0339,0.0401,0.0408,0.043,0.0454,0.0471,0.0465,0.046,0.0453,0.0439,0.041,0.0362,0.0343,0.0318,0.0287,0.0212,0.014,0.021,0.0205,0.019,-0.0007,0.0045,0.0034,0.0102,0.0099,0.0096,0.0021,0,0.0356,0.0412,0.0437,0.0474,0.0497,0.0493,0.0487,0.0479,0.0472,0.0441,0.0375,0.0351,0.034,0.0328,0.0247,0.0157,0.0097,0.0166,0.0018,0.0014,0.0066,0.0016,0.0086,0.001,0.0006,0.0004,0.0002,0,0.0382,0.0417,0.0466,0.0501,0.051,0.0531,0.0522,0.0527,0.0473,0.0461,0.0407,0.0369,0.0269,0.0261,0.0088,0.0141,0.0076,0.0004,-0.0001,0.0017,0.0036,0.0032,-0.0025,-0.0023,-0.0021,-0.0019,-0.0018,0,0.0384,0.0437,0.0482,0.0497,0.053,0.0544,0.0563,0.0538,0.0525,0.0484,0.0459,0.0348,0.0301,0.0166,0.0056,0.0069,-0.0138,-0.0144,-0.016,-0.0154,-0.019,-0.018,-0.028,-0.028,-0.028,-0.028,-0.028,0,0.0398,0.0432,0.0495,0.0522,0.0552,0.0584,0.0616,0.0593,0.0556,0.0539,0.0489,0.0423,0.0273,0.0151,0.0039,-0.0094,-0.0149,-0.0175,-0.0191,-0.0165,-0.0153,-0.0197,-0.0186,-0.0283,-0.0282,-0.0282,-0.0281,0,0.0396,0.0442,0.0488,0.0541,0.0564,0.0596,0.065,0.0652,0.0636,0.0599,0.0582,0.0461,0.0336,0.019,-0.002,-0.009,-0.0244,-0.0274,-0.0198,-0.0206,-0.0188,-0.0175,-0.0306,-0.0306,-0.0305,-0.0305,-0.0304,0,0.04,0.043,0.0502,0.0534,0.0571,0.0639,0.0669,0.068,0.0673,0.0614,0.0562,0.0461,0.0386,0.0135,-0.0015,-0.0208,-0.023,-0.0287,-0.0277,-0.0199,-0.0202,-0.0189,-0.0177,-0.0303,-0.0303,-0.0303,-0.0303,0,0.0388,0.0422,0.0456,0.0523,0.058,0.0636,0.0684,0.0667,0.0675,0.0657,0.0554,0.0448,0.0322,0.0147,0.0023,-0.0133,-0.0252,-0.0282,-0.0284,-0.0275,-0.0196,-0.0197,-0.0186,-0.0301,-0.0301,-0.0301,-0.0301,0,0.0369,0.0385,0.0443,0.0496,0.0564,0.0604,0.0645,0.065,0.064,0.0579,0.0545,0.0428,0.0361,0.0184,0.0034,-0.0074,-0.0101,-0.0142,-0.0152,-0.0156,-0.0087,0.0036,-0.0028,0,0,0,0,0,0.0337,0.0364,0.0415,0.0469,0.0533,0.0581,0.0625,0.0656,0.0666,0.0601,0.0576,0.0468,0.0295,0.0194,0.0096,0.0033,-0.0133,-0.0087,-0.0189,-0.0289,-0.0291,-0.0231,0,0,0,0,0,0,0.0326,0.0362,0.0397,0.0439,0.0481,0.0545,0.0586,0.0593,0.0558,0.0557,0.0459,0.0447,0.0264,0.0357,0.0094,0.006,-0.0018,-0.0162,-0.0164,-0.0287,-0.029,-0.0292,-0.0231,0,0,0,0,0]}]]